Location: Sangrey
(48.2845°N, 109.8206°W)
Time: 00:43:39
(UTC+00:00)

X-37B - Visible Passes

Search period start: 27 January 2022 00:00
Search period end: 06 February 2022 00:00
Orbit: 334 x 337 km, 45.0° (Epoch: 11 January)

Date Brightness Start Highest point End Pass type
(mag) Time Alt. Az. Time Alt. Az. Time Alt. Az.
27 Jan 3.5 02:27:26 10° SSW 02:27:26 10° SSW 02:27:26 10° SSW visible
28 Jan 3.7 02:47:09 10° SW 02:47:10 10° SW 02:47:10 10° SW visible
29 Jan 2.3 01:32:53 10° SSW 01:34:54 18° SSE 01:35:38 16° SE visible
30 Jan 1.6 01:52:35 10° SW 01:55:07 29° SSE 01:55:16 29° SSE visible
31 Jan 1.6 02:12:43 10° WSW 02:14:53 35° SSW 02:14:53 35° SSW visible
01 Feb 1.8 00:58:01 10° SW 01:00:33 29° SSE 01:03:04 10° ESE visible
01 Feb 2.5 02:33:01 10° WSW 02:34:29 25° WSW 02:34:29 25° WSW visible
02 Feb 1.2 01:18:09 10° WSW 01:20:50 39° S 01:22:51 15° ESE visible
02 Feb 3.5 02:53:24 10° W 02:54:05 15° WSW 02:54:05 15° WSW visible
03 Feb 1.1 01:38:26 10° WSW 01:41:10 42° S 01:42:28 24° SE visible
04 Feb 1.5 01:58:50 10° W 02:01:29 34° S 02:02:08 30° SSE visible
05 Feb 2.2 02:19:23 10° WSW 02:21:44 23° SSW 02:21:52 23° SSW visible
